AFR1529 LPPR-LFPG

Flight info

Callsign AFR1529
Flight time N/A
Altitude 30000
Route TURON P600 ASDEB DCT 430020N0075516W 434510N0065955W DCT LOTEE DCT 451347N0045954W DCT GATMO DCT 462635N0030007W DCT NTS UN741 KEPER
Aircraft A320/M-SDE3FGHIRWY/LB1

Departure

Time 2026-05-05 10:57
Airport Francisco de Sá Carneiro Airport (LPPR)

Arrival

Time N/A
Airport Charles de Gaulle International Airport (LFPG)
Time Latitude Longitude Altitude Speed Heading
2026-05-05 10:35 41.23638 -8.67245 225 ft 0 kts 79°
2026-05-05 10:50 41.23637 -8.67255 225 ft 2 kts 78°
2026-05-05 10:50 41.23634 -8.67275 225 ft 2 kts 79°
2026-05-05 10:50 41.23631 -8.67294 225 ft 2 kts 78°
2026-05-05 10:50 41.23629 -8.67314 225 ft 2 kts 102°
2026-05-05 10:51 41.23636 -8.67332 225 ft 2 kts 137°
2026-05-05 10:51 41.23649 -8.67341 225 ft 2 kts 173°
2026-05-05 10:51 41.23657 -8.67342 225 ft 0 kts 172°
2026-05-05 10:51 41.23658 -8.67342 225 ft 0 kts 172°
2026-05-05 10:54 41.23645 -8.67339 225 ft 4 kts 169°
2026-05-05 10:54 41.23605 -8.67332 225 ft 7 kts 182°
2026-05-05 10:55 41.23551 -8.67366 225 ft 9 kts 213°
2026-05-05 10:55 41.23484 -8.67388 225 ft 11 kts 168°
2026-05-05 10:55 41.23404 -8.67367 225 ft 12 kts 171°
2026-05-05 10:55 41.23334 -8.67421 225 ft 13 kts 252°
2026-05-05 10:56 41.23315 -8.67548 225 ft 14 kts 258°
2026-05-05 10:56 41.23301 -8.67671 225 ft 11 kts 279°
2026-05-05 10:56 41.23365 -8.67748 222 ft 14 kts 347°
2026-05-05 10:56 41.23480 -8.67777 220 ft 25 kts 348°
2026-05-05 10:57 41.23941 -8.67902 211 ft 106 kts 349°
2026-05-05 10:57 41.24882 -8.68138 331 ft 156 kts 349°
2026-05-05 10:57 41.25892 -8.68396 1136 ft 148 kts 351°
2026-05-05 10:57 41.26872 -8.68610 1938 ft 144 kts 350°
2026-05-05 10:58 41.27833 -8.68822 2678 ft 142 kts 348°
2026-05-05 10:58 41.28786 -8.69096 3371 ft 144 kts 346°
2026-05-05 10:58 41.29786 -8.69396 3937 ft 155 kts 347°
2026-05-05 10:58 41.30892 -8.69717 4433 ft 174 kts 347°
2026-05-05 10:59 41.32131 -8.70063 4949 ft 193 kts 347°
2026-05-05 10:59 41.33529 -8.70444 5493 ft 215 kts 348°
2026-05-05 10:59 41.35049 -8.70853 6131 ft 232 kts 348°
2026-05-05 10:59 41.36684 -8.71291 6751 ft 248 kts 347°
2026-05-05 11:00 41.38408 -8.71755 7415 ft 262 kts 347°
2026-05-05 11:00 41.40190 -8.72234 8360 ft 266 kts 348°
2026-05-05 11:00 41.42040 -8.72562 9227 ft 269 kts 357°
2026-05-05 11:00 41.43909 -8.72405 10164 ft 274 kts
2026-05-05 11:01 41.45771 -8.71968 10970 ft 281 kts
2026-05-05 11:01 41.47765 -8.71459 11473 ft 298 kts
2026-05-05 11:01 41.49848 -8.70922 11900 ft 314 kts
2026-05-05 11:01 41.52039 -8.70356 12307 ft 331 kts
2026-05-05 11:02 41.54370 -8.69761 12647 ft 346 kts
2026-05-05 11:02 41.56777 -8.69154 13007 ft 360 kts
2026-05-05 11:02 41.59234 -8.68527 13595 ft 366 kts
2026-05-05 11:02 41.61761 -8.67881 14301 ft 368 kts
2026-05-05 11:03 41.64274 -8.67244 14924 ft 371 kts
2026-05-05 11:03 41.66798 -8.66602 15531 ft 374 kts
2026-05-05 11:03 41.69348 -8.65956 16162 ft 378 kts
2026-05-05 11:03 41.71944 -8.65296 16822 ft 382 kts
2026-05-05 11:04 41.74546 -8.64634 17485 ft 383 kts
2026-05-05 11:04 41.77192 -8.63960 18135 ft 385 kts
2026-05-05 11:04 41.79814 -8.63292 18712 ft 388 kts
2026-05-05 11:04 41.82487 -8.62607 19295 ft 391 kts
2026-05-05 11:05 41.85144 -8.61925 19874 ft 392 kts
2026-05-05 11:05 41.87832 -8.61234 20446 ft 394 kts
2026-05-05 11:05 41.90531 -8.60540 20967 ft 396 kts
2026-05-05 11:05 41.93205 -8.59853 21502 ft 398 kts
2026-05-05 11:06 41.95934 -8.59151 22046 ft 398 kts
2026-05-05 11:06 41.98658 -8.58452 22563 ft 400 kts
2026-05-05 11:06 42.01409 -8.57745 23041 ft 402 kts
2026-05-05 11:06 42.04123 -8.57045 23495 ft 404 kts
2026-05-05 11:07 42.06916 -8.56386 23963 ft 404 kts
2026-05-05 11:07 42.09688 -8.55897 24385 ft 404 kts
2026-05-05 11:07 42.12486 -8.55447 24767 ft 407 kts
2026-05-05 11:07 42.15315 -8.55001 25159 ft 410 kts
2026-05-05 11:08 42.18155 -8.54553 25538 ft 413 kts
2026-05-05 11:08 42.21022 -8.54101 25881 ft 416 kts
2026-05-05 11:08 42.23905 -8.53641 26206 ft 419 kts
2026-05-05 11:08 42.26811 -8.53179 26517 ft 422 kts
2026-05-05 11:09 42.29729 -8.52710 26863 ft 423 kts
2026-05-05 11:09 42.32636 -8.52245 27156 ft 426 kts
2026-05-05 11:09 42.35566 -8.51776 27478 ft 426 kts
2026-05-05 11:09 42.38502 -8.51304 27910 ft 425 kts
2026-05-05 11:10 42.41452 -8.50831 28362 ft 422 kts
2026-05-05 11:10 42.44336 -8.50369 28710 ft 422 kts
2026-05-05 11:10 42.47242 -8.49781 28952 ft 428 kts
2026-05-05 11:10 42.50126 -8.48626 29181 ft 436 kts 15°
2026-05-05 11:11 42.52880 -8.46896 29447 ft 443 kts 23°
2026-05-05 11:11 42.55467 -8.44598 29750 ft 449 kts 31°
2026-05-05 11:11 42.57895 -8.41874 29990 ft 454 kts 34°
2026-05-05 11:12 42.62671 -8.36230 30026 ft 456 kts 35°
2026-05-05 11:12 42.67420 -8.30578 30031 ft 457 kts 35°
2026-05-05 11:13 42.72227 -8.24865 30035 ft 457 kts 35°
2026-05-05 11:13 42.77002 -8.19192 30041 ft 457 kts 36°
2026-05-05 11:14 42.81810 -8.13474 30033 ft 458 kts 36°
2026-05-05 11:14 42.86611 -8.07752 30034 ft 458 kts 36°
2026-05-05 11:15 42.91405 -8.02020 30023 ft 459 kts 36°
2026-05-05 11:15 42.96203 -7.96268 30016 ft 460 kts 36°
2026-05-05 11:16 43.00988 -7.90513 30014 ft 460 kts 36°
2026-05-05 11:16 43.05747 -7.84702 30012 ft 460 kts 37°
2026-05-05 11:17 43.10504 -7.78858 30017 ft 460 kts 37°
2026-05-05 11:17 43.15243 -7.73031 30015 ft 460 kts 37°
2026-05-05 11:18 43.20013 -7.67148 30016 ft 461 kts 37°
2026-05-05 11:18 43.24752 -7.61293 30020 ft 459 kts 37°
2026-05-05 11:19 43.29505 -7.55410 30017 ft 460 kts 37°
2026-05-05 11:19 43.34244 -7.49533 30012 ft 460 kts 37°
2026-05-05 11:20 43.38992 -7.43630 30014 ft 460 kts 37°
2026-05-05 11:20 43.43701 -7.37760 30015 ft 460 kts 37°
2026-05-05 11:21 43.48445 -7.31832 30015 ft 460 kts 38°
2026-05-05 11:21 43.53163 -7.25922 30017 ft 460 kts 38°
2026-05-05 11:22 43.57880 -7.19999 30015 ft 460 kts 38°
2026-05-05 11:22 43.62621 -7.14036 30014 ft 461 kts 39°
2026-05-05 11:23 43.67344 -7.08073 30012 ft 461 kts 39°
2026-05-05 11:23 43.72053 -7.02117 30011 ft 461 kts 39°
2026-05-05 11:24 43.76781 -6.96162 30013 ft 461 kts 38°
2026-05-05 11:24 43.81547 -6.90290 30025 ft 460 kts 38°
2026-05-05 11:25 43.86327 -6.84391 30022 ft 461 kts 38°
2026-05-05 11:25 43.91079 -6.78498 30014 ft 461 kts 39°
2026-05-05 11:26 43.95869 -6.72535 30012 ft 462 kts 39°
2026-05-05 11:26 44.00612 -6.66616 30009 ft 461 kts 39°
2026-05-05 11:27 44.05386 -6.60643 30011 ft 460 kts 39°
2026-05-05 11:27 44.10111 -6.54718 30012 ft 460 kts 39°
2026-05-05 11:28 44.14858 -6.48754 30008 ft 460 kts 39°
2026-05-05 11:28 44.19616 -6.42760 30011 ft 460 kts 39°
2026-05-05 11:29 44.24330 -6.36805 30007 ft 459 kts 40°
2026-05-05 11:29 44.29057 -6.30820 29998 ft 459 kts 40°
2026-05-05 11:30 44.33755 -6.24861 30008 ft 459 kts 41°
2026-05-05 11:30 44.38473 -6.18865 30001 ft 457 kts 41°
2026-05-05 11:31 44.43164 -6.12891 29997 ft 456 kts 41°
2026-05-05 11:31 44.47820 -6.06941 29995 ft 456 kts 41°
2026-05-05 11:32 44.52466 -6.00989 29997 ft 455 kts 41°
2026-05-05 11:32 44.57143 -5.94984 29994 ft 455 kts 41°
2026-05-05 11:33 44.61813 -5.88972 29996 ft 456 kts 41°
2026-05-05 11:33 44.66411 -5.82905 29997 ft 455 kts 44°
2026-05-05 11:34 44.70747 -5.76453 30004 ft 454 kts 46°
2026-05-05 11:34 44.75006 -5.69999 30017 ft 454 kts 46°
2026-05-05 11:35 44.79305 -5.63473 29989 ft 453 kts 46°
2026-05-05 11:35 44.83541 -5.57026 30003 ft 453 kts 46°
2026-05-05 11:36 44.87818 -5.50504 29977 ft 453 kts 46°
2026-05-05 11:36 44.92100 -5.43964 29989 ft 453 kts 46°
2026-05-05 11:37 44.96388 -5.37407 29991 ft 453 kts 46°
2026-05-05 11:37 45.00735 -5.30743 29980 ft 452 kts 47°
2026-05-05 11:38 45.05066 -5.24082 29982 ft 452 kts 47°
2026-05-05 11:38 45.09401 -5.17395 29990 ft 453 kts 47°
2026-05-05 11:39 45.13763 -5.10653 29987 ft 452 kts 47°
2026-05-05 11:39 45.18070 -5.03973 29983 ft 451 kts 47°
2026-05-05 11:40 45.22330 -4.97367 29980 ft 451 kts 47°
2026-05-05 11:40 45.26618 -4.90880 29978 ft 450 kts 46°
2026-05-05 11:41 45.30910 -4.84393 29987 ft 450 kts 47°
2026-05-05 11:41 45.35225 -4.77842 29986 ft 450 kts 47°
2026-05-05 11:42 45.39526 -4.71283 29967 ft 449 kts 47°
2026-05-05 11:42 45.43784 -4.64770 29961 ft 449 kts 47°
2026-05-05 11:43 45.48064 -4.58210 29958 ft 449 kts 47°
2026-05-05 11:43 45.52340 -4.51640 29966 ft 449 kts 47°
2026-05-05 11:44 45.56608 -4.45067 29957 ft 449 kts 47°
2026-05-05 11:44 45.60849 -4.38520 29951 ft 448 kts 47°
2026-05-05 11:45 45.65130 -4.31895 29954 ft 448 kts 48°
2026-05-05 11:45 45.69355 -4.25343 29953 ft 447 kts 48°
2026-05-05 11:46 45.73601 -4.18741 29955 ft 447 kts 49°
2026-05-05 11:46 45.77815 -4.12171 29951 ft 446 kts 49°
2026-05-05 11:47 45.82035 -4.05576 29960 ft 445 kts 49°
2026-05-05 11:47 45.86240 -3.98987 29941 ft 445 kts 49°
2026-05-05 11:48 45.92547 -3.89079 29947 ft 444 kts 49°
2026-05-05 11:48 45.96727 -3.82488 29949 ft 444 kts 49°
2026-05-05 11:49 46.00900 -3.75890 29939 ft 444 kts 49°
2026-05-05 11:49 46.04997 -3.69171 29935 ft 442 kts 52°
2026-05-05 11:50 46.08893 -3.62259 29938 ft 442 kts 52°
2026-05-05 11:50 46.12769 -3.55324 29934 ft 444 kts 52°
2026-05-05 11:51 46.16639 -3.48385 29932 ft 443 kts 52°
2026-05-05 11:51 46.20520 -3.41409 29927 ft 442 kts 53°
2026-05-05 11:52 46.24397 -3.34421 29929 ft 442 kts 53°
2026-05-05 11:52 46.28245 -3.27471 29925 ft 441 kts 53°
2026-05-05 11:53 46.32102 -3.20485 29932 ft 442 kts 53°
2026-05-05 11:53 46.35824 -3.13733 29935 ft 441 kts 53°
2026-05-05 11:54 46.43314 -3.00081 29930 ft 441 kts 54°
2026-05-05 11:55 46.47084 -2.93104 29925 ft 439 kts 54°
2026-05-05 11:55 46.50842 -2.86083 29927 ft 439 kts 54°
2026-05-05 11:56 46.54584 -2.79076 29924 ft 439 kts 54°
2026-05-05 11:56 46.58202 -2.72286 29922 ft 438 kts 54°
2026-05-05 11:57 46.61931 -2.65272 29915 ft 437 kts 54°
2026-05-05 11:57 46.65625 -2.58308 29918 ft 436 kts 54°
2026-05-05 11:58 46.69354 -2.51258 29912 ft 436 kts 54°
2026-05-05 11:58 46.73085 -2.44195 29918 ft 436 kts 54°
2026-05-05 11:59 46.76802 -2.37140 29914 ft 435 kts 54°
2026-05-05 11:59 46.80510 -2.30080 29908 ft 434 kts 55°
2026-05-05 12:00 46.84170 -2.23088 29899 ft 433 kts 55°
2026-05-05 12:00 46.87789 -2.16164 29891 ft 432 kts 55°
2026-05-05 12:01 46.91380 -2.09274 29887 ft 432 kts 55°
2026-05-05 12:01 46.92254 -2.07595 29895 ft 432 kts 55°